星链-5293 (STARLINK-5293 )

导读

STARLINK-5293是美国SpaceX公司星链(Starlink)星座的成员卫星,于2023年1月19日发射入轨,编号NORAD 55295,属于星链组网批量发射任务。星链星座旨在依托近地轨道小卫星群,为全球尤其是基础设施匮乏区域提供高速低延迟宽带互联网服务。该卫星是SpaceX推进星链全球覆盖计划的一部分,补充低轨卫星网络节点,支撑星座的服务能力扩展。

基本信息
目录编号:
55295
目录名称:
STARLINK-5293
国际标识:
2023-010AC
轨道中心:
EARTH
卫星名称:
星链-5293
卫星全名:
星链-5293 (STARLINK-5293 )
卫星状态:
在轨 (已飞行1332 天)
发射日期:
2023-01-19 UTC
国别 :
美国 (US)
星等 :
--
该卫星已列入 空间交会检测服务 Space Conjunction Data Service (SCDS) ,当前飞行风险评估等级: 无高风险
轨道信息
数据来源 国际轨道数据
星历时间: 2026-09-12T11:46:10+0800
10小时前
查看轨道信息
半长轴: 6950.196km
偏心率: 0.000351
轨道倾角: 69.998°
近地点辐角 270.640°
升交点赤经 294.437°
平近点角 89.436°
近地点: 569.619km
远地点: 574.499km
周期: 96.107分钟
每日圈数: 14.983292
详细信息
固有亮度:
5
最大亮度:
2.5
卫星平台:
Starlink v1.5
覆盖范围:
全球
运营商:
太空探索技术公司
运营商所在国:
美国
制造商(研发单位):
太空探索技术公司
制造商所在国:
美国
使用方式:
暂无
卫星简介
星链(Starlink)计划是由太空探索技术公司(SpaceX)提出的一个巨型低轨卫星互联网星座项目,计划在2019年至2024年间在太空搭建由约1.2万颗卫星组成的“星链”网络,其中1584颗将部署在地球上空550千米处的近地轨道,并从2020年开始工作。该卫星仍在工作。
2D轨道图
3D轨道图
轨道高度分析图
轨道倾角分析图
轨道综合分析图
查看轨道综合分析图
与全量物体交会距离演化趋势
与全量物体交会风险概率演化趋势